[Iaude] MPEC N03: 2024 MR1 [a=2.13,e=0.45,i=9.4,H=22.9]
    mpec at cfa.harvard.edu 
    mpec at cfa.harvard.edu
       
    Mon Jul  1 04:27:57 EDT 2024
    
    
  
M.P.E.C. 2024-N03                                  Issued 2024 July 1, 08:26 UT
     The Minor Planet Electronic Circulars contain information on unusual
         minor planets, routine data on comets and natural satellites,
         and occasional editorial announcements.  They are published
    on behalf of Division F of the International Astronomical Union by the
          Minor Planet Center, Smithsonian Astrophysical Observatory,
                          Cambridge, MA 02138, U.S.A.
			  
             Prepared using the Tamkin Foundation Computer Network
                              MPC at CFA.HARVARD.EDU
            URL https://www.minorplanetcenter.net/    ISSN 1523-6714
                                    2024 MR1                                    
Observations:
     K24M01R* C2024 06 28.53559021 22 42.487-09 59 36.65         21.19wXEN003F51
     K24M01R  C2024 06 28.54468821 22 44.330-09 59 56.57         21.34wXEN003F51
     K24M01R  C2024 06 28.55376321 22 46.201-10 00 16.52         21.09wXEN003F51
     K24M01R |C2024 06 29.32902021 25 35.490-10 27 59.50         20.9 GVEN003807
     K24M01R |C2024 06 29.33350021 25 36.340-10 28 09.70         20.9 GVEN003807
     K24M01R |C2024 06 29.33782021 25 37.220-10 28 19.80         21.1 GVEN003807
     K24M01R  C2024 06 29.50268321 26 14.149-10 34 58.06         21.56GVEN003F51
     K24M01R  C2024 06 29.50350221 26 14.318-10 34 59.82         21.15GVEN003F51
     K24M01R 3C2024 06 29.59293721 26 32.142-10 38 16.64         21.05GVEN003T14
     K24M01R 3C2024 06 29.59489721 26 32.533-10 38 20.89         20.90GVEN003T14
     K24M01R 3C2024 06 29.59587421 26 32.730-10 38 23.06         20.98GVEN003T14
     K24M01R KC2024 07 01.31758121 32 41.35 -11 42 15.9          21.0 GVEN003H21
     K24M01R KC2024 07 01.32611221 32 43.02 -11 42 35.4          21.2 GVEN003H21
     K24M01R KC2024 07 01.33180021 32 44.15 -11 42 48.2          21.1 GVEN003H21
Observer details:
807 Cerro Tololo Observatory, La Serena.  Observers T. Linder, R. Holmes.
    0.61-m f/6.8 Ritchey-Chretien + CCD.
F51 Pan-STARRS 1, Haleakala.  Observers J. Herman, T. Lowe, P. Minguez, A.
    Schultz, I. Smith.  Measurers K. Chambers, T. de Boer, J. Fairlamb, H.
    Gao, M. Huber, C.-C. Lin, E. Magnier, Y. Ramanjooloo, R. Wainscoat, R.
    Weryk.  1.8-m Ritchey-Chretien + CCD.
H21 Astronomical Research Observatory, Westfield.  Observer R. Holmes.
    Measurers T. Linder, R. Holmes, L. Horn.  0.81-m f/4.0 astrograph + CCD.
T14 Canada-France-Hawaii Telescope, Maunakea.  Observers R. Wainscoat, A.
    Acohido, T. Burdullis.  Measurers R. Weryk, R. Wainscoat.  3.6-m f/4.1
    reflector + CCD.
Orbital elements:
2024 MR1                                                 Earth MOID = 0.1598 AU
Epoch 2024 Mar. 31.0 TT = JDT 2460400.5                 MPC                     
M 333.80024              (2000.0)            P               Q                  
n   0.31751197     Peri.  167.93504     +0.12824978     +0.97967379             
a   2.1279560      Node   109.28024     -0.92295202     +0.17481621             
e   0.4484609      Incl.    9.40482     -0.36292087     -0.09837965             
P   3.10           H   22.93          G   0.15           U   8                  
Residuals in seconds of arc
240628 F51  0.2-  0.1+    240629 807  0.2+  0.6-    240629 T14  0.1-  0.0
240628 F51  0.2-  0.0     240629 F51  0.1-  0.0     240701 H21  0.0   0.2+
240628 F51  0.2+  0.1-    240629 F51  0.1-  0.1+    240701 H21  0.1-  0.1-
240629 807  0.9+  0.4+    240629 T14  0.1-  0.0     240701 H21  0.1+  0.2-
240629 807  0.1+  0.0     240629 T14  0.1-  0.0
Ephemeris:
2024 MR1                 a,e,i = 2.13, 0.45, 9                   q = 1.1737
Date    TT    R. A. (2000) Decl.     Delta      r    Elong.  Phase     V
2024 06 01    19 34 20.6 +02 00 26   0.2532  1.1936   130.3    40.4    21.9
...
2024 06 16    20 33 51.0 -03 08 09   0.2176  1.1751   133.0    39.2    21.5
...
2024 06 24    21 05 35.2 -07 18 47   0.2087  1.1739   135.3    37.5    21.4
...
2024 06 30    21 28 00.4 -10 52 53   0.2067  1.1771   137.4    35.8    21.3
2024 07 01    21 31 33.6 -11 29 53   0.2068  1.1780   137.7    35.5    21.3
2024 07 02    21 35 03.0 -12 07 08   0.2069  1.1789   138.1    35.1    21.3
...
2024 07 08    21 54 31.6 -15 52 29   0.2102  1.1866   140.6    33.0    21.3
...
2024 07 16    22 16 00.3 -20 42 57   0.2203  1.2019   144.1    29.7    21.3
...
2024 07 31    22 41 01.0 -28 12 10   0.2558  1.2448   150.9    23.4    21.5
A. U. Tomatic                (C) Copyright 2024 MPC           M.P.E.C. 2024-N03
    
    
More information about the Iaude
mailing list